| time (UTC) | temp F | wind direction | speed MPH | gust MPH | rain 1hr in | rain 24hr in | rain mn in | humidity % | barometer mb |
| 20260906150016 | 71 | 197 | 2.0 | 11.0 | 0.00 | 0.00 | 0.00 | 34 | 1017.6 |
| 20260906145416 | 71 | 65 | 2.0 | 8.0 | 0.00 | 0.00 | 0.00 | 35 | 1017.6 |
| 20260906144516 | 71 | 85 | 2.0 | 7.0 | 0.00 | 0.00 | 0.00 | 35 | 1017.6 |
| 20260906143616 | 70 | 0 | 0.0 | 2.0 | 0.00 | 0.00 | 0.00 | 36 | 1017.6 |
| 20260906142716 | 69 | 223 | 0.0 | 5.0 | 0.00 | 0.00 | 0.00 | 36 | 1017.6 |
| 20260906141815 | 68 | 222 | 0.0 | 5.0 | 0.00 | 0.00 | 0.00 | 37 | 1017.6 |
| 20260906140916 | 67 | 212 | 2.0 | 10.0 | 0.00 | 0.00 | 0.00 | 37 | 1017.6 |
| 20260906140016 | 66 | 227 | 1.0 | 6.0 | 0.00 | 0.00 | 0.00 | 39 | 1017.6 |
| 20260906135416 | 65 | 234 | 2.0 | 6.0 | 0.00 | 0.00 | 0.00 | 40 | 1017.6 |
| 20260906134516 | 64 | 0 | 0.0 | 0.0 | 0.00 | 0.00 | 0.00 | 41 | 1017.6 |
| 20260906133616 | 65 | 234 | 1.0 | 5.0 | 0.00 | 0.00 | 0.00 | 40 | 1017.6 |
| 20260906132716 | 66 | 234 | 2.0 | 9.0 | 0.00 | 0.00 | 0.00 | 39 | 1017.6 |
| 20260906131816 | 66 | 233 | 2.0 | 10.0 | 0.00 | 0.00 | 0.00 | 38 | 1017.6 |
| 20260906130916 | 64 | 237 | 2.0 | 10.0 | 0.00 | 0.00 | 0.00 | 39 | 1017.6 |
| 20260906130016 | 64 | 0 | 0.0 | 1.0 | 0.00 | 0.00 | 0.00 | 43 | 1017.6 |
| 20260906125416 | 64 | 239 | 0.0 | 1.0 | 0.00 | 0.00 | 0.00 | 42 | 1017.6 |
| 20260906124516 | 64 | 0 | 0.0 | 0.0 | 0.00 | 0.00 | 0.00 | 42 | 1017.6 |
| 20260906123616 | 65 | 238 | 1.0 | 6.0 | 0.00 | 0.00 | 0.00 | 41 | 1017.6 |
| 20260906122716 | 65 | 243 | 1.0 | 8.0 | 0.00 | 0.00 | 0.00 | 40 | 1017.6 |
| 20260906121816 | 64 | 246 | 1.0 | 5.0 | 0.00 | 0.00 | 0.00 | 42 | 1017.6 |
| 20260906120916 | 63 | 246 | 0.0 | 5.0 | 0.00 | 0.00 | 0.00 | 44 | 1017.6 |
| 20260906120016 | 62 | 0 | 0.0 | 0.0 | 0.00 | 0.00 | 0.00 | 47 | 1017.6 |
| 20260906115416 | 62 | 0 | 0.0 | 0.0 | 0.00 | 0.00 | 0.00 | 49 | 1017.6 |
| 20260906114516 | 61 | 0 | 0.0 | 1.0 | 0.00 | 0.00 | 0.00 | 49 | 1017.6 |
| 20260906113637 | 60 | 0 | 0.0 | 1.0 | 0.00 | 0.00 | 0.00 | 51 | 1017.6 |
| 20260906112716 | 60 | 0 | 0.0 | 0.0 | 0.00 | 0.00 | 0.00 | 55 | 1017.6 |
| 20260906111816 | 60 | 0 | 0.0 | 0.0 | 0.00 | 0.00 | 0.00 | 55 | 1017.6 |
| 20260906110916 | 60 | 0 | 0.0 | 0.0 | 0.00 | 0.00 | 0.00 | 56 | 1017.6 |
| 20260906110037 | 60 | 0 | 0.0 | 0.0 | 0.00 | 0.00 | 0.00 | 54 | 1017.6 |
| 20260906105437 | 60 | 0 | 0.0 | 0.0 | 0.00 | 0.00 | 0.00 | 55 | 1017.6 |
| 20260906104516 | 60 | 0 | 0.0 | 0.0 | 0.00 | 0.00 | 0.00 | 55 | 1017.6 |
| 20260906103616 | 60 | 0 | 0.0 | 0.0 | 0.00 | 0.00 | 0.00 | 56 | 1017.6 |
| 20260906102737 | 60 | 0 | 0.0 | 0.0 | 0.00 | 0.00 | 0.00 | 57 | 1017.6 |
| 20260906101816 | 60 | 0 | 0.0 | 0.0 | 0.00 | 0.00 | 0.00 | 55 | 1017.6 |
| 20260906100937 | 60 | 0 | 0.0 | 0.0 | 0.00 | 0.00 | 0.00 | 56 | 1017.6 |
| 20260906100016 | 61 | 0 | 0.0 | 0.0 | 0.00 | 0.00 | 0.00 | 55 | 1017.6 |
| 20260906095416 | 61 | 0 | 0.0 | 0.0 | 0.00 | 0.00 | 0.00 | 54 | 1017.6 |
| 20260906094516 | 62 | 0 | 0.0 | 0.0 | 0.00 | 0.00 | 0.00 | 52 | 1017.6 |
| 20260906093616 | 62 | 0 | 0.0 | 0.0 | 0.00 | 0.00 | 0.00 | 51 | 1017.6 |
| 20260906092716 | 62 | 0 | 0.0 | 0.0 | 0.00 | 0.00 | 0.00 | 50 | 1017.6 |
| 20260906091837 | 63 | 0 | 0.0 | 0.0 | 0.00 | 0.00 | 0.00 | 49 | 1017.6 |
| 20260906090916 | 63 | 0 | 0.0 | 0.0 | 0.00 | 0.00 | 0.00 | 47 | 1017.6 |
| 20260906090016 | 63 | 0 | 0.0 | 0.0 | 0.00 | 0.00 | 0.00 | 48 | 1017.6 |
| 20260906085416 | 63 | 0 | 0.0 | 0.0 | 0.00 | 0.00 | 0.00 | 47 | 1017.6 |
| 20260906084516 | 63 | 0 | 0.0 | 0.0 | 0.00 | 0.00 | 0.00 | 47 | 1017.6 |
| 20260906083637 | 63 | 0 | 0.0 | 0.0 | 0.00 | 0.00 | 0.00 | 46 | 1017.6 |
| 20260906082716 | 64 | 0 | 0.0 | 0.0 | 0.00 | 0.00 | 0.00 | 47 | 1017.6 |
| 20260906081816 | 64 | 0 | 0.0 | 0.0 | 0.00 | 0.00 | 0.00 | 45 | 1017.6 |
| 20260906080916 | 64 | 246 | 0.0 | 1.0 | 0.00 | 0.00 | 0.00 | 46 | 1017.6 |
| 20260906080016 | 64 | 0 | 0.0 | 0.0 | 0.00 | 0.00 | 0.00 | 47 | 1017.6 |
| 20260906075437 | 64 | 0 | 0.0 | 0.0 | 0.00 | 0.00 | 0.00 | 47 | 1017.6 |
| 20260906074537 | 65 | 0 | 0.0 | 0.0 | 0.00 | 0.00 | 0.00 | 45 | 1017.6 |
| 20260906073616 | 65 | 0 | 0.0 | 0.0 | 0.00 | 0.00 | 0.00 | 45 | 1017.6 |
| 20260906072716 | 66 | 0 | 0.0 | 0.0 | 0.00 | 0.00 | 0.00 | 43 | 1017.6 |
| 20260906071816 | 66 | 0 | 0.0 | 0.0 | 0.00 | 0.00 | 0.00 | 43 | 1017.6 |
| 20260906070916 | 67 | 0 | 0.0 | 0.0 | 0.00 | 0.00 | 0.00 | 43 | 1017.6 |
| 20260906070016 | 67 | 0 | 0.0 | 0.0 | 0.00 | 0.00 | 0.00 | 40 | 1017.6 |
| 20260906065416 | 68 | 0 | 0.0 | 0.0 | 0.00 | 0.00 | 0.00 | 40 | 1017.6 |
| 20260906064516 | 69 | 0 | 0.0 | 0.0 | 0.00 | 0.00 | 0.00 | 38 | 1017.6 |
| 20260906063616 | 70 | 0 | 0.0 | 0.0 | 0.00 | 0.00 | 0.00 | 35 | 1017.6 |
| 20260906062737 | 73 | 0 | 0.0 | 0.0 | 0.00 | 0.00 | 0.00 | 32 | 1017.6 |
| 20260906061816 | 74 | 246 | 1.0 | 4.0 | 0.00 | 0.00 | 0.00 | 24 | 1017.6 |
| 20260906060937 | 73 | 246 | 1.0 | 5.0 | 0.00 | 0.00 | 0.00 | 24 | 1017.6 |
| 20260906060016 | 74 | 0 | 0.0 | 0.0 | 0.00 | 0.00 | 0.00 | 27 | 1017.6 |
| 20260906055416 | 75 | 0 | 0.0 | 0.0 | 0.00 | 0.00 | 0.00 | 25 | 1017.6 |
| 20260906054516 | 76 | 0 | 0.0 | 0.0 | 0.00 | 0.00 | 0.00 | 23 | 1017.6 |
| 20260906053616 | 77 | 0 | 0.0 | 0.0 | 0.00 | 0.00 | 0.00 | 20 | 1017.6 |
| 20260906052716 | 78 | 246 | 0.0 | 2.0 | 0.00 | 0.00 | 0.00 | 20 | 1017.6 |
| 20260906051816 | 78 | 246 | 1.0 | 7.0 | 0.00 | 0.00 | 0.00 | 21 | 1017.6 |
| 20260906050937 | 78 | 246 | 2.0 | 7.0 | 0.00 | 0.00 | 0.00 | 21 | 1017.6 |
| 20260906050016 | 78 | 246 | 3.0 | 7.0 | 0.00 | 0.00 | 0.00 | 21 | 1017.6 |
| 20260906045416 | 78 | 246 | 2.0 | 5.0 | 0.00 | 0.00 | 0.00 | 21 | 1017.6 |
| 20260906044516 | 78 | 246 | 1.0 | 4.0 | 0.00 | 0.00 | 0.00 | 22 | 1017.6 |
| 20260906043616 | 79 | 246 | 1.0 | 7.0 | 0.00 | 0.00 | 0.00 | 21 | 1017.6 |
| 20260906042716 | 79 | 246 | 3.0 | 8.0 | 0.00 | 0.00 | 0.00 | 21 | 1017.6 |
| 20260906041816 | 79 | 246 | 3.0 | 7.0 | 0.00 | 0.00 | 0.00 | 21 | 1017.6 |
| 20260906040937 | 79 | 246 | 2.0 | 5.0 | 0.00 | 0.00 | 0.00 | 22 | 1017.6 |
| 20260906040016 | 79 | 249 | 2.0 | 7.0 | 0.00 | 0.00 | 0.00 | 22 | 1017.6 |
| 20260906035416 | 80 | 250 | 2.0 | 7.0 | 0.00 | 0.00 | 0.00 | 21 | 1017.6 |
| 20260906034516 | 80 | 243 | 1.0 | 8.0 | 0.00 | 0.00 | 0.00 | 20 | 1017.6 |
| 20260906033616 | 80 | 238 | 4.0 | 8.0 | 0.00 | 0.00 | 0.00 | 19 | 1017.6 |
| 20260906032716 | 80 | 238 | 4.0 | 6.0 | 0.00 | 0.00 | 0.00 | 19 | 1017.6 |
| 20260906031837 | 80 | 238 | 3.0 | 8.0 | 0.00 | 0.00 | 0.00 | 19 | 1017.6 |
| 20260906030916 | 81 | 238 | 3.0 | 8.0 | 0.00 | 0.00 | 0.00 | 19 | 1017.6 |
| 20260906030016 | 80 | 239 | 4.0 | 6.0 | 0.00 | 0.00 | 0.00 | 20 | 1017.6 |
| 20260906025416 | 80 | 240 | 4.0 | 6.0 | 0.00 | 0.00 | 0.00 | 21 | 1017.6 |
| 20260906024516 | 81 | 241 | 4.0 | 6.0 | 0.00 | 0.00 | 0.00 | 22 | 1017.6 |
| 20260906023616 | 81 | 241 | 3.0 | 6.0 | 0.00 | 0.00 | 0.00 | 24 | 1017.6 |
| 20260906022716 | 81 | 253 | 3.0 | 8.0 | 0.00 | 0.00 | 0.00 | 26 | 1017.6 |
| 20260906021816 | 81 | 32 | 1.0 | 4.0 | 0.00 | 0.00 | 0.00 | 26 | 1017.6 |
| 20260906020916 | 81 | 32 | 2.0 | 4.0 | 0.00 | 0.00 | 0.00 | 26 | 1017.6 |
| 20260906020016 | 80 | 32 | 1.0 | 4.0 | 0.00 | 0.00 | 0.00 | 27 | 1017.6 |
| 20260906015416 | 80 | 32 | 0.0 | 3.0 | 0.00 | 0.00 | 0.00 | 28 | 1017.6 |
| 20260906014516 | 80 | 0 | 0.0 | 0.0 | 0.00 | 0.00 | 0.00 | 29 | 1017.6 |
| 20260906013616 | 80 | 0 | 0.0 | 0.0 | 0.00 | 0.00 | 0.00 | 29 | 1017.6 |
| 20260906012716 | 81 | 0 | 0.0 | 0.0 | 0.00 | 0.00 | 0.00 | 31 | 1017.6 |
| 20260906011816 | 82 | 0 | 0.0 | 0.0 | 0.00 | 0.00 | 0.00 | 28 | 1017.6 |
| 20260906010916 | 83 | 0 | 0.0 | 0.0 | 0.00 | 0.00 | 0.00 | 26 | 1017.6 |
| 20260906010016 | 85 | 0 | 0.0 | 0.0 | 0.00 | 0.00 | 0.00 | 26 | 1017.6 |
| 20260906005416 | 85 | 0 | 0.0 | 0.0 | 0.00 | 0.00 | 0.00 | 24 | 1017.6 |
| 20260906004516 | 86 | 0 | 0.0 | 1.0 | 0.00 | 0.00 | 0.00 | 24 | 1017.6 |
| 20260906003637 | 86 | 32 | 1.0 | 6.0 | 0.00 | 0.00 | 0.00 | 23 | 1017.6 |
| 20260906002737 | 87 | 33 | 1.0 | 6.0 | 0.00 | 0.00 | 0.00 | 23 | 1017.6 |
| 20260906001816 | 88 | 32 | 1.0 | 6.0 | 0.00 | 0.00 | 0.00 | 23 | 1017.6 |
| 20260906000937 | 89 | 26 | 1.0 | 5.0 | 0.00 | 0.00 | 0.00 | 22 | 1017.6 |
| 20260906000016 | 90 | 23 | 0.0 | 5.0 | 0.00 | 0.00 | 0.00 | 21 | 1017.6 |
| 20260905235437 | 90 | 24 | 1.0 | 5.0 | 0.00 | 0.00 | 0.00 | 21 | 1017.6 |
| 20260905234516 | 91 | 19 | 2.0 | 7.0 | 0.00 | 0.00 | 0.00 | 21 | 1017.6 |
| 20260905233616 | 91 | 19 | 2.0 | 9.0 | 0.00 | 0.00 | 0.00 | 20 | 1017.6 |
| 20260905232716 | 92 | 37 | 0.0 | 4.0 | 0.00 | 0.00 | 0.00 | 20 | 1017.6 |
| 20260905231816 | 91 | 43 | 1.0 | 6.0 | 0.00 | 0.00 | 0.00 | 20 | 1017.6 |
| 20260905230916 | 91 | 4 | 1.0 | 6.0 | 0.00 | 0.00 | 0.00 | 20 | 1017.6 |
| 20260905230016 | 91 | 7 | 2.0 | 9.0 | 0.00 | 0.00 | 0.00 | 21 | 1017.6 |
| 20260905225416 | 91 | 19 | 3.0 | 10.0 | 0.00 | 0.00 | 0.00 | 21 | 1017.6 |
| 20260905224537 | 90 | 48 | 3.0 | 10.0 | 0.00 | 0.00 | 0.00 | 22 | 1017.6 |
| 20260905223616 | 91 | 41 | 1.0 | 6.0 | 0.00 | 0.00 | 0.00 | 21 | 1017.6 |
| 20260905222737 | 91 | 36 | 3.0 | 9.0 | 0.00 | 0.00 | 0.00 | 21 | 1017.6 |
| 20260905221816 | 91 | 17 | 4.0 | 9.0 | 0.00 | 0.00 | 0.00 | 23 | 1017.6 |
| 20260905220916 | 90 | 23 | 3.0 | 9.0 | 0.00 | 0.00 | 0.00 | 22 | 1017.6 |
| 20260905220016 | 90 | 33 | 5.0 | 11.0 | 0.00 | 0.00 | 0.00 | 22 | 1017.6 |
| 20260905215416 | 90 | 24 | 4.0 | 11.0 | 0.00 | 0.00 | 0.00 | 22 | 1017.6 |
| 20260905214516 | 91 | 27 | 3.0 | 7.0 | 0.00 | 0.00 | 0.00 | 21 | 1017.6 |
| 20260905213616 | 90 | 17 | 4.0 | 11.0 | 0.00 | 0.00 | 0.00 | 22 | 1017.6 |
| 20260905212716 | 90 | 13 | 5.0 | 11.0 | 0.00 | 0.00 | 0.00 | 22 | 1017.6 |
| 20260905211816 | 90 | 28 | 3.0 | 10.0 | 0.00 | 0.00 | 0.00 | 22 | 1017.6 |
| 20260905210916 | 90 | 14 | 4.0 | 11.0 | 0.00 | 0.00 | 0.00 | 22 | 1017.6 |
| 20260905210037 | 90 | 20 | 3.0 | 9.0 | 0.00 | 0.00 | 0.00 | 22 | 1017.6 |
| 20260905205416 | 89 | 33 | 4.0 | 10.0 | 0.00 | 0.00 | 0.00 | 23 | 1017.6 |
| 20260905204516 | 90 | 19 | 4.0 | 12.0 | 0.00 | 0.00 | 0.00 | 23 | 1017.6 |
| 20260905203616 | 90 | 24 | 5.0 | 12.0 | 0.00 | 0.00 | 0.00 | 23 | 1017.6 |
| 20260905202716 | 89 | 15 | 4.0 | 11.0 | 0.00 | 0.00 | 0.00 | 24 | 1017.6 |
| 20260905201816 | 89 | 18 | 5.0 | 11.0 | 0.00 | 0.00 | 0.00 | 24 | 1017.6 |
| 20260905200916 | 88 | 8 | 3.0 | 8.0 | 0.00 | 0.00 | 0.00 | 25 | 1017.6 |
| 20260905200016 | 88 | 351 | 3.0 | 9.0 | 0.00 | 0.00 | 0.00 | 23 | 1017.6 |
| 20260905195416 | 88 | 332 | 4.0 | 9.0 | 0.00 | 0.00 | 0.00 | 23 | 1017.6 |
| 20260905194516 | 88 | 25 | 4.0 | 10.0 | 0.00 | 0.00 | 0.00 | 24 | 1017.6 |
| 20260905193616 | 87 | 15 | 3.0 | 10.0 | 0.00 | 0.00 | 0.00 | 25 | 1017.6 |
| 20260905192737 | 86 | 38 | 2.0 | 9.0 | 0.00 | 0.00 | 0.00 | 24 | 1017.6 |
| 20260905191816 | 86 | 26 | 3.0 | 10.0 | 0.00 | 0.00 | 0.00 | 25 | 1017.6 |
| 20260905190916 | 86 | 16 | 3.0 | 10.0 | 0.00 | 0.00 | 0.00 | 24 | 1017.6 |
| 20260905190016 | 87 | 10 | 3.0 | 12.0 | 0.00 | 0.00 | 0.00 | 23 | 1017.6 |
| 20260905185437 | 87 | 10 | 4.0 | 12.0 | 0.00 | 0.00 | 0.00 | 24 | 1017.6 |
| 20260905184516 | 86 | 17 | 4.0 | 10.0 | 0.00 | 0.00 | 0.00 | 25 | 1017.6 |
| 20260905183616 | 87 | 16 | 3.0 | 10.0 | 0.00 | 0.00 | 0.00 | 24 | 1017.6 |
| 20260905182716 | 86 | 11 | 4.0 | 10.0 | 0.00 | 0.00 | 0.00 | 24 | 1017.6 |
| 20260905181816 | 86 | 10 | 3.0 | 9.0 | 0.00 | 0.00 | 0.00 | 25 | 1017.6 |
| 20260905180916 | 85 | 350 | 3.0 | 10.0 | 0.00 | 0.00 | 0.00 | 24 | 1017.6 |
| 20260905180016 | 85 | 5 | 2.0 | 10.0 | 0.00 | 0.00 | 0.00 | 24 | 1017.6 |
| 20260905175416 | 85 | 344 | 1.0 | 7.0 | 0.00 | 0.00 | 0.00 | 25 | 1017.6 |
| 20260905174516 | 84 | 346 | 1.0 | 8.0 | 0.00 | 0.00 | 0.00 | 26 | 1017.6 |
| 20260905173616 | 83 | 341 | 2.0 | 5.0 | 0.00 | 0.00 | 0.00 | 28 | 1017.6 |
| 20260905172737 | 82 | 315 | 2.0 | 10.0 | 0.00 | 0.00 | 0.00 | 29 | 1017.6 |
| 20260905171816 | 82 | 17 | 2.0 | 9.0 | 0.00 | 0.00 | 0.00 | 30 | 1017.6 |
| 20260905170916 | 83 | 54 | 1.0 | 7.0 | 0.00 | 0.00 | 0.00 | 30 | 1017.6 |
| 20260905170016 | 83 | 56 | 0.0 | 4.0 | 0.00 | 0.00 | 0.00 | 30 | 1017.6 |
| 20260905165416 | 83 | 56 | 0.0 | 3.0 | 0.00 | 0.00 | 0.00 | 30 | 1017.6 |
| 20260905164516 | 82 | 56 | 1.0 | 5.0 | 0.00 | 0.00 | 0.00 | 32 | 1017.6 |
| 20260905163616 | 80 | 57 | 1.0 | 6.0 | 0.00 | 0.00 | 0.00 | 35 | 1017.6 |
| 20260905162737 | 80 | 57 | 1.0 | 6.0 | 0.00 | 0.00 | 0.00 | 34 | 1017.6 |
| 20260905161837 | 78 | 0 | 0.0 | 0.0 | 0.00 | 0.00 | 0.00 | 33 | 1017.6 |
| 20260905160916 | 78 | 58 | 0.0 | 3.0 | 0.00 | 0.00 | 0.00 | 33 | 1017.6 |
| 20260905160016 | 77 | 0 | 0.0 | 0.0 | 0.00 | 0.00 | 0.00 | 34 | 1017.6 |
| 20260905155416 | 77 | 0 | 0.0 | 0.0 | 0.00 | 0.00 | 0.00 | 34 | 1017.6 |
| 20260905154516 | 74 | 0 | 0.0 | 0.0 | 0.00 | 0.00 | 0.00 | 39 | 1017.6 |
| 20260905153616 | 73 | 68 | 0.0 | 5.0 | 0.00 | 0.00 | 0.00 | 42 | 1017.6 |
| 20260905152716 | 71 | 68 | 1.0 | 5.0 | 0.00 | 0.00 | 0.00 | 44 | 1017.6 |
| 20260905151816 | 71 | 68 | 0.0 | 3.0 | 0.00 | 0.00 | 0.00 | 41 | 1017.6 |
| 20260905150916 | 71 | 48 | 0.0 | 2.0 | 0.00 | 0.00 | 0.00 | 40 | 1017.6 |